Home > Weather > Ebebiyín > Past weeks

Flag for Equatorial Guinea Past Weather in Ebebiyín, Equatorial Guinea — Yesterday and Last 2 Weeks

Now
73 °F

Thunderstorms. Passing clouds.


Feels Like: 70 °F
Forecast: 69 / 79 °F
Wind: 3 mph from West

Location: Yaounde Airport

Current Time: May 28, 2016 at 7:24:23 PM

Latest Report: May 28, 2016 at 7:00 PM


Visibility: 4 mi

Pressure: 30.04 "Hg (28.15 "Hg at 564m altitude)

Humidity: 94%

Dew Point: 72 °F

Location of EbebiyínLocation

Past Weather in Ebebiyín — Graph

°F

Ebebiyín Temperature Yesterday

Maximum temperature yesterday: 90 °F (at 4:00 PM)
Minimum temperature yesterday: 72 °F (at 9:00 PM)
Average temperature yesterday: 79 °F

High & Low Weather Summary for the Past Weeks

 TemperatureHumidityPressure
High90 °F (May 26, 4:00 PM)100% (May 13, 11:00 PM)30.18 "Hg (May 13, 11:00 PM)
Low68 °F (May 13, 11:00 PM)52% (May 26, 4:00 PM)29.92 "Hg (May 13, 5:00 PM)
Average76 °F85%30.06 "Hg
* Reported May 13 5:00 PM — May 28 5:00 PM, Ebebiyín, Weather by CustomWeather, © 2016

Note: Actual official high and low records may vary slightly from our data, if they occured in-between our weather recording intervals... More about our weather records

Advertising

Ebebiyín Weather History for the Previous 24 Hours

Scroll right to see more
 ConditionsComfort  
Time TempWeatherWind HumidityBarometerVisibility
5:00 PM
Sat, May 28
79 °FThunderstorms. Partly sunny.2 mph79%29.98 "HgN/A
4:00 PM82 °FThunderstorms. Partly sunny.5 mph70%29.98 "HgN/A
3:00 PM86 °FThunderstorms. Partly sunny.8 mph62%29.98 "HgN/A
2:00 PM84 °FPartly sunny.6 mph66%30.01 "HgN/A
1:00 PM82 °FPartly sunny.6 mph70%30.07 "HgN/A
12:00 PM81 °FPartly sunny.3 mph74%30.09 "HgN/A
11:00 AM79 °FPartly sunny.2 mph79%30.12 "HgN/A
10:00 AM77 °FOvercast.6 mph83%30.12 "Hg5 mi
9:00 AM73 °FMore clouds than sun.6 mph89%30.12 "Hg5 mi
8:00 AM73 °FLow clouds.3 mph89%30.09 "Hg5 mi
6:00 AM72 °FPassing clouds.3 mph94%30.07 "Hg4 mi
5:00 AM72 °FPartly cloudy.3 mph94%30.07 "Hg5 mi
4:00 AM72 °FPartly cloudy.5 mph94%30.07 "Hg5 mi
12:00 AM73 °FPassing clouds.3 mph94%30.09 "HgN/A
11:00 PM
Fri, May 27
73 °FThunderstorms. Passing clouds.3 mph94%30.09 "HgN/A
10:00 PM72 °FThunderstorms. Partly cloudy.No wind88%30.09 "HgN/A
9:00 PM72 °FThunderstorms. Passing clouds.No wind88%30.07 "HgN/A
8:00 PM73 °FThunderstorms. Passing clouds.3 mph83%30.04 "HgN/A
7:00 PM75 °FThunderstorms. Passing clouds.3 mph78%30.04 "HgN/A
Weather by CustomWeather, © 2016

See weather overviewHow to use our weather pages